Location: Mason Neck State Park
(38.6428°N, 77.1981°W)
Time: 07:38:57
(UTC-05:00)

ISS - Visible Passes

Search period start: 26 November 2014 00:00
Search period end: 06 December 2014 00:00
Orbit: 407 x 417 km, 51.6° (Epoch: 26 November)

Date Brightness Start Highest point End Pass type
(mag) Time Alt. Az. Time Alt. Az. Time Alt. Az.
26 Nov 0.0 04:29:40 11° NE 04:29:40 11° NE 04:29:50 10° ENE visible
26 Nov -3.2 06:02:30 17° NW 06:04:56 77° NE 06:08:14 10° SE visible
27 Nov -2.4 05:14:59 41° NNE 05:15:09 42° NNE 05:18:18 10° ESE visible
28 Nov 0.0 04:27:33 14° E 04:27:33 14° E 04:28:08 10° E visible
28 Nov -2.4 06:00:23 21° W 06:01:58 35° SW 06:05:00 10° SSE visible
29 Nov -2.6 05:13:01 49° SSE 05:13:01 49° SSE 05:15:35 10° SE visible
30 Nov 0.2 04:25:44 11° ESE 04:25:44 11° ESE 04:25:50 10° ESE visible
30 Nov -1.1 05:58:35 12° WSW 05:58:50 12° SW 06:00:16 10° SSW visible
01 Dec -0.7 05:11:22 13° S 05:11:22 13° S 05:11:57 10° S visible
05 Dec -0.9 18:28:55 10° S 18:29:50 14° SSE 18:29:50 14° SSE visible
